Location: ?
(35.4214°N, 139.3011°E)
Time: 20:42:30
(UTC+00:00)

Meteor 2-17 Rocket - Pass Details

Date: 27 October 2020
Orbit: 935 x 956 km, 82.5° (Epoch: 04 December)

Event Time Altitude Azimuth Distance (km) Brightness Sun altitude
Rises 11:11:52 0° 347° (NNW) 3,598 7.8 -40.9°
Reaches altitude 10° 11:14:24 10° 343° (NNW) 2,650 7.0 -41.4°
Enters shadow 11:14:48 12° 342° (NNW) 2,504 6.9 -41.5°
